STARLINK-11444 [DTC]

Last updated on Thu Jan 23 2025 00:02:04 GMT+0000 (Coordinated Universal Time)

1 62409U 24249A 25022.44672828 .00004547 00000+0 28973-4 0 9996 2 62409 42.9973 128.2200 0001699 280.9694 79.0985 15.77861167 4781
UTC large
Height (km)
Speed (km/s)
/
Latitude / Longitude
Inclination (degrees)
Orbital Period (minutes)
Azimuth
Elevation
Range (km)
Doppler Factor

Next 0 passes for location: London (51.5072 / 0.1276)

Sorry there are no passes over London.